Location: Grand Lay
(47.3253°N, 0.9468°E)
Time: 01:25:42
(UTC+00:00)

Daily predictions for brighter satellites

Satellite Brightness Start Highest point End
(mag) Time Altitude Azimuth Time Altitude Azimuth Time Altitude Azimuth
ATLAS 2AS CENTAUR R/B 4.4 03:16:43 24° NE 03:16:43 24° NE 03:20:52 10° ENE
BREEZE-M DEB (TANK) 4.3 03:54:08 75° SE 03:54:08 75° SE 03:58:38 10° ESE
Cosmos 2082 Rocket 3.9 04:12:12 24° NNE 04:13:47 28° NE 04:18:35 10° ESE
CZ-4C R/B 4.3 04:15:27 18° N 04:15:40 18° N 04:20:13 10° NE
Cosmos 2278 Rocket 3.8 04:14:32 16° SSE 04:18:14 31° ESE 04:23:10 10° NE
BREEZE-M DEB (TANK) 4.1 04:23:13 74° W 04:24:07 86° N 04:49:43 10° E
Cosmos 1943 Rocket 3.3 04:25:36 28° SSE 04:27:44 40° ESE 04:32:51 10° NE
BREEZE-M DEB (TANK) 4.2 04:45:11 58° SSW 04:46:21 73° SSE 05:03:03 10° ENE
Cosmos 2181 Rocket 3.9 04:49:08 10° N 04:55:34 88° W 05:02:00 10° S
Meteor 2-13 Rocket 4.4 04:49:48 10° N 04:55:58 84° E 05:02:03 10° S
Cosmos 1932 4.4 04:58:56 63° WSW 04:59:51 73° NW 05:06:26 10° NE
Cosmos 2184 Rocket 4.3 04:53:51 10° S 04:59:56 64° E 05:06:02 10° NNE
Lacrosse 4 Rocket 3.5 04:57:55 10° SSE 05:01:06 24° ESE 05:04:16 10° ENE
FengYun 1-2 T 4.0 04:58:57 10° NNE 05:04:31 77° WNW 05:06:39 39° SSW
Gblst 52 Del rocket 4.0 05:04:20 69° NW 05:05:01 83° NNE 05:10:33 10° ESE
ATLAS 2AS CENTAUR R/B 2.8 05:04:09 33° NNW 05:07:24 69° NE 05:14:08 10° SE
BREEZE-M DEB (TANK) 3.4 05:08:20 60° SSW 05:08:27 61° SSW 05:17:35 10° SE
NOAA 12 4.2 05:03:44 10° NNE 05:08:58 75° ESE 05:14:12 10° S
Cosmos 1805 Rocket 3.5 05:11:35 10° S 05:16:00 88° E 05:20:26 10° N
BREEZE-M DEB (TANK) 4.4 05:22:01 26° ENE 05:22:01 26° ENE 05:23:13 10° E
Cosmos 921 Rocket 2.9 05:21:33 64° NNW 05:21:33 64° NNW 05:25:20 10° NNE
Lacrosse 5 rocket 3.1 05:21:30 19° N 05:21:30 19° N 05:24:02 10° NE
Cosmos 2074 Rocket 3.9 05:15:44 10° S 05:22:02 86° W 05:28:21 10° N
Atlas Centaur 2 4.3 05:19:55 10° SSW 05:22:34 14° S 05:25:27 10° SE
Cosmos 1500 Rocket 3.4 05:19:14 10° SSW 05:23:34 79° W 05:28:00 10° N
IRS-1D 3.5 05:19:17 10° NNE 05:24:38 83° WNW 05:29:56 10° SSW
Okean 3 3.3 05:26:23 61° SW 05:26:23 61° SW 05:29:51 10° S
CENTAUR R/B 4.0 05:21:51 10° S 05:26:36 33° ESE 05:32:23 10° NE
Cosmos 1408 Rocket 3.4 05:28:03 62° WNW 05:28:03 62° WNW 05:32:10 10° N
SKYMED 2 3.7 05:25:28 10° S 05:29:23 52° WSW 05:29:23 52° WSW
Helios 1A Rocket 3.3 05:26:39 10° SE 05:29:53 47° ENE 05:31:43 22° N
Cosmos 1758 3.1 05:29:20 10° S 05:33:02 83° E 05:36:45 10° N
ATLAS CENTAUR R/B 2.0 05:36:43 28° S 05:36:43 28° S 05:38:21 10° SSE
Nadezhda 3 Rocket 3.9 05:31:23 10° N 05:37:39 80° W 05:43:57 10° S
NOSS 8 (F) 4.1 05:41:41 69° NNW 05:41:59 81° NE 05:45:25 10° SE
SL-12 R/B(2) 4.3 05:34:19 10° SW 05:42:15 86° SE 05:52:03 10° NE
NOSS 8 (H) 4.1 05:45:37 63° WSW 05:45:41 63° SW 05:49:09 10° SSE
Cosmos 44 3.6 05:46:52 30° NW 05:49:20 57° WSW 05:54:35 10° SSE
Cosmos 2084 Rocket 3.7 05:50:18 25° NNW 05:52:39 63° NE 05:56:50 10° SE
IGS 5A 3.4 05:49:30 10° NNE 05:53:29 80° ESE 05:57:27 10° S
SL-23 DEB 3.4 05:57:06 43° WNW 05:57:49 57° NNW 06:01:04 10° ENE
Cosmos 2082 Rocket 2.2 05:54:03 18° NW 05:58:14 61° WSW 06:03:49 10° S
Meteor 2-10 Rocket 3.8 05:54:06 10° SW 05:58:59 44° WNW 06:04:06 10° N
USA 307 2.6 05:57:41 35° WNW 05:59:14 74° SW 06:03:07 10° SE
Cosmos 2278 Rocket 2.4 05:56:40 10° SW 06:02:06 47° NW 06:07:35 10° NNE
COSMO-SKYMED 1 2.9 05:58:41 10° SSW 06:02:30 37° W 06:04:28 23° NW
COSMOS 2406 3.3 05:57:54 10° NNW 06:03:41 82° ENE 06:09:26 10° SSE
Cosmos 1328 4.2 06:00:11 10° N 06:03:44 56° ENE 06:07:16 10° SSE
Cosmos 2154 Rocket 4.1 05:57:42 10° SSW 06:03:48 51° WNW 06:09:56 10° N
Meteor 2-19 Rocket 4.4 05:58:29 10° N 06:04:36 87° E 06:10:39 10° S
Cosmos 1656 Rocket 4.3 05:59:45 10° S 06:05:20 61° ESE 06:10:54 10° NNE
Cosmos 1862 Rocket 3.4 06:01:29 10° NNW 06:05:49 77° W 06:10:06 10° S
CZ-4C R/B 4.1 06:00:23 11° NNW 06:05:57 32° NNE 06:12:57 10° E
Cosmos 1461 3.6 06:03:23 10° SSW 06:07:08 51° ESE 06:10:56 10° NE
Cosmos 1943 Rocket 2.7 06:07:12 14° WSW 06:11:30 36° NW 06:16:35 10° NNE
USA 32 4.1 06:09:45 10° SSW 06:14:52 54° W 06:20:01 10° N
Cosmos 1763 Rocket 3.4 06:10:52 10° NNW 06:15:52 65° WSW 06:20:54 10° S
Cosmos 1140 Rocket 3.8 06:11:37 10° SW 06:16:27 42° WNW 06:21:21 10° N
Cosmos 1269 Rocket 4.4 06:11:59 10° SW 06:16:59 42° WNW 06:22:01 10° N
Cosmos 1707 Rocket 3.6 06:17:03 10° NNW 06:21:17 55° W 06:25:31 10° S
Gbstr 26 Del rocket 4.2 06:15:19 14° W 06:21:44 69° NNW 06:27:59 10° ENE
NOSS 2-2 (C) 3.6 06:20:33 10° SSW 06:23:53 52° SE 06:26:49 10° NE
Cosmos 540 Rocket 3.5 06:20:51 10° NNW 06:25:53 62° WSW 06:30:53 10° S
Cosmos 1633 Rocket 2.9 06:22:57 10° SSW 06:27:15 68° W 06:31:35 10° N
Cosmos 2341 Rocket 4.1 06:22:00 10° S 06:28:24 89° W 06:34:49 10° N
CORIOLIS 4.3 06:24:49 10° NNE 06:30:18 86° ESE 06:35:43 10° SSW
Okean 1-7 3.2 06:29:28 10° NNW 06:33:26 44° W 06:37:24 10° SSW
Cosmos 1953 2.0 06:31:40 10° S 06:35:19 86° W 06:39:01 10° N
USA 234 4.5 06:32:03 10° ENE 06:38:19 46° SE 06:44:34 10° SSW
Lacrosse 4 Rocket 1.8 06:35:04 10° WSW 06:38:44 37° NW 06:42:24 10° NNE
Cosmos 1666 Rocket 3.9 06:35:22 10° SSW 06:39:30 42° WNW 06:43:43 10° N
GEOS 3 Rocket 4.1 06:34:58 10° SSE 06:39:57 45° WSW 06:45:02 10° NW
ARIANE 5 R/B 2.9 06:35:37 10° NNE 06:40:43 68° ESE 06:45:44 10° S
Cosmos 1484 Rocket 3.3 06:39:17 10° N 06:42:14 28° WNW 06:45:13 10° SW
Cosmos 220 Rocket 3.8 06:41:19 10° NNW 06:45:31 80° WSW 06:49:39 10° SSE
Cosmos 371 Rocket 3.4 06:41:04 10° SSW 06:45:53 84° ESE 06:50:43 10° NNE
SJ 16-02 1.2 06:44:45 10° SSW 06:49:00 79° WNW 06:53:16 10° NNE
Tiangong 0.4 06:46:59 10° SSW 06:49:23 20° SSE 06:51:48 10° ESE
SL-8 Rocket 4.0 06:43:32 10° SSW 06:49:45 63° WNW 06:56:00 10° N
NOSS 2-2 (D) 4.0 06:46:29 10° SSW 06:49:50 45° SE 06:52:47 10° NE
Cosmos 2228 Rocket 3.6 06:46:24 10° NNW 06:50:25 36° W 06:54:24 10° SSW
NOSS 3-2 (A) 4.1 06:48:25 10° SSW 06:53:12 51° ESE 06:58:50 10° NE
CBERS-1 4.3 06:48:46 10° N 06:53:37 46° WNW 06:58:27 10° SW
Landsat 7 3.8 06:49:16 10° N 06:53:52 60° WNW 06:58:26 10° SSW
GRACE-FO 1 4.4 06:52:25 10° S 06:55:49 62° W 06:59:15 10° N
Cosmos 1340 Rocket 4.1 06:52:28 10° SSE 06:55:57 41° E 06:59:29 10° NNE
GRACE-FO 2 4.4 06:52:51 10° S 06:56:14 62° W 06:59:41 10° N
Meteor 1-15 Rocket 4.3 06:51:02 10° SSW 06:56:49 64° WNW 07:02:42 10° N
ATLAS 2AS CENTAUR R/B 3.6 06:52:09 10° NW 06:57:46 29° WSW 07:03:24 10° S
SL-08 R/B 3.8 06:53:00 10° SSE 06:57:51 67° ENE 07:02:44 10° N
Lacrosse 5 rocket 2.2 06:55:30 10° NW 06:59:02 36° NNE 07:02:32 10° E
SAR-Lupe-4 3.9 06:55:53 10° NNE 06:59:28 72° ESE 07:03:01 10° S
SMAP 3.3 06:57:08 10° N 07:01:36 47° WNW 07:06:03 10° SW
Cosmos 407 Rocket 4.0 06:57:38 10° SW 07:02:20 35° WNW 07:07:08 10° N
Helios 1A Rocket 4.4 07:01:14 10° WSW 07:02:33 12° W 07:03:52 10° WNW
Cosmos 2369 Rocket 2.4 06:58:26 10° SSW 07:04:08 85° ESE 07:09:53 10° NNE
SJ-6F 4.3 07:01:04 10° NNE 07:05:03 85° W 07:08:58 10° SSW
